Location: Poughquag
(41.6090°N, 73.6820°W)
Time: 12:08:07
(UTC-04:00)

Vanguard 1 Rocket - Pass Details

Date: 30 May 2020
Orbit: 653 x 4224 km, 34.3° (Epoch: 06 July)

Event Time Altitude Azimuth Distance (km) Brightness Sun altitude
Rises 06:42:31 0° 275° (W) 5,102 10.7 12.6°
Reaches altitude 10° 06:47:10 10° 264° (W) 3,508 9.8 13.4°
Maximum altitude 06:53:23 24° 214° (SSW) 1,906 8.7 14.5°
Drops below altitude 10° 06:57:40 10° 159° (SSE) 2,335 9.6 15.3°
Sets 07:00:06 0° 144° (SE) 3,087 10.4 15.7°
